Location: Chandolas
(44.4033°N, 4.2533°E)
Time: 10:12:52
(UTC+00:00)

SL-4 R/B - Pass Details

Date: 15 November 2019
Orbit: 428 x 667 km, 51.6° (Epoch: 09 December)

Event Time Altitude Azimuth Distance (km) Brightness Sun altitude
Exits shadow 05:47:01 11° 304° (WNW) 2,028 4.3 -9.4°
Maximum altitude 05:51:39 61° 24° (NNE) 756 2.7 -8.6°
Drops below altitude 10° 05:56:23 10° 105° (ESE) 2,056 6.7 -7.8°
Sets 05:58:42 0° 109° (ESE) 2,942 8.4 -7.4°
